FW4043 Weather Reports


time (UTC)temp
F
wind
direction
speed
knots
gust
knots
rain 1hr
in
rain 24hr
in
rain mn
in
humidity
%
barometer
mb
20260502163059 64 55 7.0 15.6 0.00 1.90 0.00 85 1022.3
20260502163006 64 22 7.0 15.6 0.00 1.90 0.00 85 1022.4
20260502161546 64 51 7.0 15.6 0.00 1.90 0.00 86 1022.2
20260502151526 61 10 7.0 11.3 0.00 1.90 0.00 90 1022.2
20260502123016 55 12 4.3 9.6 0.00 1.93 0.00 92 1020.5
20260502121520 54 35 3.5 8.7 0.00 1.93 0.00 92 1020.2
20260502114526 54 28 4.3 9.6 0.00 1.93 0.00 92 1019.8
20260502113035 54 22 4.3 8.7 0.00 1.93 0.00 92 1019.6
20260502111541 54 30 4.3 9.6 0.00 1.93 0.00 92 1019.3
20260502110023 55 347 7.0 11.3 0.00 1.94 0.00 92 1019.2
20260502104533 54 24 4.3 7.8 0.00 1.94 0.00 92 1019.2
20260502103030 54 34 4.3 7.8 0.00 1.94 0.00 92 1019.1
20260502101538 54 53 2.6 4.3 0.00 1.94 0.00 93 1018.9
20260502091528 55 63 4.3 7.8 0.00 1.94 0.00 93 1017.6
20260502080103 56 74 7.0 11.3 0.00 1.94 0.00 93 1017.4
20260502070058 56 11 7.8 12.2 0.00 1.94 0.00 93 1017.4
20260502070001 56 19 7.0 12.2 0.00 1.94 0.00 93 1017.5
20260502064513 56 40 5.2 9.6 0.00 1.94 0.00 93 1017.3
20260502063014 56 53 7.0 15.6 0.00 1.94 0.00 93 1017.2
20260502061524 56 51 4.3 13.9 0.00 1.94 0.00 93 1017.0
20260502060032 56 5 7.8 15.6 0.00 2.02 0.00 93 1016.9
20260502054541 56 16 7.0 11.3 0.00 2.02 0.00 93 1016.8
20260502053106 56 44 6.1 11.3 0.00 2.02 0.00 93 1016.8
20260502051553 56 51 7.0 11.3 0.00 2.02 0.00 93 1016.9
20260502050012 57 46 7.0 11.3 0.00 2.06 2.02 93 1017.2
20260502044511 57 5 7.0 13.9 0.00 2.06 2.02 93 1016.9
20260502043016 57 5 7.0 12.2 0.00 2.06 2.02 93 1016.9
20260502041601 57 29 10.4 13.9 0.00 2.06 2.02 93 1016.8
20260502041503 57 360 10.4 13.9 0.00 2.06 2.02 93 1016.7
20260502040010 57 34 7.0 11.3 0.03 2.12 2.02 93 1016.8
20260502034512 57 25 6.1 11.3 0.03 2.12 2.02 93 1016.6
20260502033102 57 19 6.1 13.9 0.03 2.12 2.02 93 1016.4
20260502031506 58 30 7.0 17.4 0.03 2.12 2.02 93 1016.0
20260502030009 59 11 8.7 13.9 0.01 2.15 1.99 93 1015.3
20260502024531 59 25 3.5 10.4 0.02 2.15 1.99 93 1015.4
20260502023016 59 60 5.2 11.3 0.03 2.15 1.99 93 1014.9
20260502021524 59 30 7.0 10.4 0.04 2.15 1.99 93 1015.0
20260502020029 59 32 6.1 11.3 0.05 2.17 1.98 93 1015.1
20260502014539 60 339 6.1 10.4 0.08 2.16 1.97 93 1015.1
20260502013040 59 19 4.3 10.4 0.08 2.15 1.96 93 1014.8
20260502011557 59 36 6.1 9.6 0.08 2.14 1.95 93 1014.5
20260502010056 60 32 5.2 11.3 0.13 2.12 1.93 93 1013.9
20260502004509 59 355 4.3 13.9 0.25 2.10 1.89 93 1013.9
20260502003012 60 360 7.0 9.6 0.30 2.09 1.88 93 1012.8
20260502001521 60 46 6.1 13.0 0.28 2.06 1.87 93 1012.8
20260502000020 61 9 6.1 13.0 0.21 2.00 1.79 93 1013.3
20260501234524 61 22 7.0 13.0 0.06 1.85 1.64 93 1012.7
20260501233024 61 36 6.1 17.4 0.00 1.79 1.58 93 1012.0
20260501231533 61 28 6.1 19.1 0.00 1.79 1.58 93 1011.4
20260501224530 62 35 7.0 13.0 0.00 1.79 1.58 93 1011.8
20260501223036 62 55 9.6 17.4 0.01 1.79 1.58 93 1011.8
20260501221540 62 84 5.2 15.6 0.01 1.79 1.58 93 1011.6
20260501220050 63 30 8.7 12.2 0.01 1.79 1.58 93 1011.5
20260501214554 63 53 7.0 10.4 0.08 1.79 1.58 93 1011.8
20260501213004 63 26 8.7 13.0 0.36 1.78 1.57 93 1012.0
20260501211510 63 42 5.2 10.4 0.38 1.78 1.57 93 1011.7
20260501210016 63 71 4.3 12.2 0.40 1.78 1.57 93 1011.7
20260501204520 63 75 8.7 13.0 0.31 1.69 1.49 93 1010.7
20260501203038 63 80 6.1 13.0 0.06 1.42 1.21 93 1011.0
20260501201526 63 33 8.7 12.2 0.15 1.40 1.19 93 1009.9
20260501200034 63 86 7.0 10.4 0.30 1.38 1.17 93 1010.4
20260501194533 63 92 7.0 13.9 0.40 1.38 1.17 93 1010.6
20260501193039 63 80 5.2 10.4 0.42 1.36 1.14 93 1010.9
20260501191544 63 28 7.0 13.0 0.31 1.25 1.05 93 1010.3
20260501190053 63 87 8.7 15.6 0.19 1.09 0.88 93 1009.8
20260501184607 63 71 8.7 18.2 0.10 0.98 0.77 93 1009.7
20260501183058 63 51 7.8 11.3 0.07 0.94 0.73 93 1010.9
20260501181509 63 86 7.8 13.0 0.07 0.94 0.73 93 1010.6
20260501180018 63 55 7.0 12.2 0.05 0.90 0.69 93 1011.9
20260501174514 64 49 6.1 9.6 0.04 0.88 0.67 93 1011.7
20260501173023 64 74 6.1 11.3 0.08 0.87 0.66 93 1011.6
20260501171532 64 65 7.8 13.9 0.46 0.87 0.66 93 1011.3
20260501170031 64 5 7.8 11.3 0.52 0.85 0.64 93 1012.1
20260501164552 63 34 6.1 12.2 0.51 0.84 0.63 92 1012.2